Change the Weather History Date:

Monday, November 18, 2013

  Actual Average Record
Temperature  
Mean Temperature 42 °F -  
Max Temperature 61 °F 48 °F 71 °F (2007)
Min Temperature 23 °F 22 °F 9 °F (2014)
Degree Days  
Heating Degree Days 23    
Moisture  
Dew Point 26 °F    
Average Humidity 52    
Maximum Humidity 85    
Minimum Humidity 18    
Precipitation  
Precipitation 0.00 in - - ()
Sea Level Pressure  
Sea Level Pressure 30.08 in    
Wind  
Wind Speed 12 mph (SSW)    
Max Wind Speed 20 mph    
Max Gust Speed 24 mph    
Visibility 10 miles    
Events      
Averages and records for this station are not official NWS values.
T = Trace of Precipitation, MM = Missing Value Source: NWS Daily Summary

Daily Weather History Graph

Daily Weather History Graph

Search for Another Location

Airport or City:

Trip Planner

Search our weather history database for the weather conditions in past years. The results will help you decide how hot, cold, wet, or windy it might be!

Date:

Astronomy

Nov. 18, 2013 Rise Set
Actual Time 7:17 AM MST 5:16 PM MST
Civil Twilight 6:48 AM MST 5:45 PM MST
Nautical Twilight 6:16 AM MST 6:17 PM MST
Astronomical Twilight 5:45 AM MST 6:49 PM MST
Moon 6:22 PM MST (11/18) 8:09 AM MST (11/18)
Length of Visible Light 10h 56m
Length of Day
9h 59m
Full, 99% of the Moon is Illuminated
Nov 18
Full
Nov 25
Last Quarter
Dec 2
New
Dec 9
First Quarter
Dec 17
Full

Hourly Weather History & Observations

Time (MST) Temp. Windchill Dew Point Humidity Pressure Visibility Wind Dir Wind Speed Gust Speed Precip Events Conditions
12:52 AM 37.0 °F 28.9 °F 28.0 °F 70% 30.11 in 10.0 mi SSW 12.7 mph - N/A   Clear
1:52 AM 39.0 °F 30.3 °F 28.9 °F 67% 30.09 in 10.0 mi SW 16.1 mph - N/A   Clear
2:52 AM 32.0 °F 23.0 °F 25.0 °F 75% 30.11 in 10.0 mi South 11.5 mph - N/A   Clear
3:52 AM 27.0 °F 17.3 °F 21.9 °F 81% 30.12 in 10.0 mi SSE 10.4 mph - N/A   Clear
4:52 AM 28.0 °F 22.8 °F 23.0 °F 81% 30.14 in 10.0 mi South 4.6 mph - N/A   Clear
5:52 AM 28.0 °F 19.3 °F 24.1 °F 85% 30.17 in 10.0 mi SSW 9.2 mph - N/A   Clear
6:52 AM 25.0 °F 16.3 °F 21.0 °F 85% 30.20 in 10.0 mi SSW 8.1 mph - N/A   Clear
7:52 AM 27.0 °F - 23.0 °F 85% 30.20 in 10.0 mi Calm Calm - N/A   Clear
8:52 AM 34.0 °F 28.8 °F 26.1 °F 73% 30.20 in 10.0 mi South 5.8 mph - N/A   Clear
9:52 AM 43.0 °F 36.8 °F 28.9 °F 58% 30.17 in 10.0 mi South 11.5 mph - N/A   Clear
10:52 AM 51.1 °F - 27.0 °F 39% 30.14 in 10.0 mi South 16.1 mph - N/A   Clear
11:52 AM 55.0 °F - 27.0 °F 34% 30.09 in 10.0 mi SSW 19.6 mph - N/A   Clear
12:52 PM 59.0 °F - 28.9 °F 32% 30.05 in 10.0 mi SSW 18.4 mph - N/A   Clear
1:52 PM 60.1 °F - 28.0 °F 30% 30.01 in 10.0 mi SSW 18.4 mph 24.2 mph N/A   Clear
2:52 PM 61.0 °F - 28.0 °F 29% 30.00 in 10.0 mi SW 15.0 mph - N/A   Clear
3:52 PM 61.0 °F - 28.0 °F 29% 30.01 in 10.0 mi SW 15.0 mph - N/A   Clear
4:52 PM 57.9 °F - 28.0 °F 32% 30.01 in 9.0 mi SSW 12.7 mph - N/A   Clear
5:52 PM 51.1 °F - 28.0 °F 41% 30.03 in 10.0 mi South 9.2 mph - N/A   Clear
6:52 PM 50.0 °F - 25.0 °F 38% 30.04 in 10.0 mi South 12.7 mph - N/A   Clear
7:52 PM 48.0 °F - 24.1 °F 39% 30.05 in 10.0 mi South 8.1 mph - N/A   Clear
8:52 PM 43.0 °F 37.2 °F 24.1 °F 47% 30.04 in 10.0 mi SW 10.4 mph - N/A   Clear
9:52 PM 44.1 °F 38.6 °F 26.1 °F 49% 30.00 in 10.0 mi SW 10.4 mph - N/A   Clear
10:52 PM 42.1 °F 37.1 °F 27.0 °F 55% 29.98 in 10.0 mi South 8.1 mph - N/A   Clear
11:52 PM 44.1 °F 38.6 °F 28.9 °F 55% 29.95 in 10.0 mi SSW 10.4 mph - N/A   Clear